Entrance Island, British Columbia

9:25 PM PST on December 03, 2016 (GMT -0800)
Entrance

Weather History for CWEL - August, 2013

Change the Weather History Date:

Wednesday, August 28, 2013

  Actual Average Record
Temperature  
Mean Temperature 62 °F -  
Max Temperature 65 °F - - ()
Min Temperature 60 °F - - ()
Degree Days  
Heating Degree Days 2    
Growing Degree Days 12 (Base 50)    
Moisture  
Dew Point 58 °F    
Average Humidity 86    
Maximum Humidity 91    
Minimum Humidity 80    
Precipitation  
Precipitation 0.03 in - - ()
Sea Level Pressure  
Sea Level Pressure 29.86 in    
Wind  
Wind Speed 5 mph ()    
Max Wind Speed 14 mph    
Max Gust Speed -    
T = Trace of Precipitation, MM = Missing Value Source: Averaged Metar Reports

Daily Weather History Graph

Daily Weather History Graph

Search for Another Location

Airport or City:

Trip Planner

Search our weather history database for the weather conditions in past years. The results will help you decide how hot, cold, wet, or windy it might be!

Date:

Astronomy

Aug. 28, 2013 Rise Set
Actual Time 6:26 AM PDT 8:05 PM PDT
Civil Twilight 5:52 AM PDT 8:38 PM PDT
Nautical Twilight 5:11 AM PDT 9:19 PM PDT
Astronomical Twilight 4:26 AM PDT 10:04 PM PDT
Moon No Moon Rise 3:03 PM PDT (8/28)
Length of Visible Light 14h 45m
Length of Day
13h 39m
Last Quarter, 46% of the Moon is Illuminated
Aug 28
Last Quarter
Sep 5
New
Sep 12
First Quarter
Sep 19
Full
Sep 26
Last Quarter

Hourly Weather History & Observations

Time (PDT) Temp. Dew Point Humidity Pressure Visibility Wind Dir Wind Speed Gust Speed Precip Events Conditions
12:00 AM 60.6 °F 56.3 °F 86% 29.82 in - West 4.6 mph - N/A   Unknown
1:00 AM 61.3 °F 56.7 °F 85% 29.83 in - West 4.6 mph - N/A   Unknown
2:00 AM 61.2 °F 56.7 °F 85% 29.82 in - West 3.5 mph - N/A   Unknown
3:00 AM 60.6 °F 56.7 °F 87% 29.82 in - WNW 3.5 mph - 0.01 in   Unknown
4:00 AM 60.4 °F 56.8 °F 88% 29.82 in - WSW 1.2 mph - 0.02 in   Unknown
5:00 AM 61 °F 57 °F 84% 29.82 in - ESE 4.5 mph - -  
5:00 AM 60.8 °F 57.4 °F 88% 29.82 in - ESE 2.3 mph - 0.01 in   Unknown
6:00 AM 60.4 °F 57.6 °F 90% 29.83 in - ENE 9.2 mph - N/A   Unknown
7:00 AM 60.4 °F 57.9 °F 91% 29.84 in - East 8.1 mph - N/A   Unknown
8:00 AM 61.0 °F 58.3 °F 91% 29.85 in - ESE 9.2 mph - N/A   Unknown
9:00 AM 60.8 °F 57.7 °F 90% 29.86 in - SSE 10.4 mph - N/A   Unknown
10:00 AM 61.9 °F 58.6 °F 89% 29.87 in - SSE 6.9 mph - N/A   Unknown
11:00 AM 63 °F 58 °F 80% 29.88 in - SE 10.4 mph - -  
11:00 AM 62.6 °F 58.5 °F 86% 29.88 in - SE 10.4 mph - N/A   Unknown
12:00 PM 63.0 °F 58.3 °F 85% 29.88 in - ESE 11.5 mph - N/A   Unknown
1:00 PM 64.2 °F 58.8 °F 83% 29.88 in - ESE 9.2 mph - N/A   Unknown
2:00 PM 64.4 °F 58.6 °F 82% 29.89 in - SE 11.5 mph - N/A   Unknown
3:00 PM 63.9 °F 58.5 °F 83% 29.89 in - ESE 13.8 mph - N/A   Unknown
4:00 PM 64.4 °F 59.2 °F 83% 29.89 in - ESE 11.5 mph - N/A   Unknown
5:00 PM 64.0 °F 59.0 °F 84% 29.88 in - ESE 6.9 mph - N/A   Unknown
6:00 PM 64.6 °F 60.1 °F 85% 29.88 in - ESE 6.9 mph - N/A   Unknown
7:00 PM 65.7 °F 60.6 °F 84% 29.88 in - ESE 1.2 mph - N/A   Unknown
8:00 PM 64.9 °F 60.1 °F 84% 29.86 in - East 4.6 mph - N/A   Unknown
9:00 PM 64.9 °F 60.1 °F 84% 29.87 in - SE 2.3 mph - N/A   Unknown
10:00 PM 64.4 °F 60.1 °F 86% 29.88 in - East 3.5 mph - N/A   Unknown
11:00 PM 63 °F 60 °F 86% 29.88 in - West 2.3 mph - -  
11:00 PM 63.3 °F 59.9 °F 89% 29.88 in - West 2.3 mph - N/A   Unknown